Yakima, WA
on Tuesday, February 26, 2013

Tuesday
Previous Day Next Day
Daily Summary
 ActualAverageRecord
Temperature
Mean Temperature °F / °C 38°F / 3°C  
Max Temperature 51°F / 11°C 50°F / 10°C 65°F / 18°C (1953)
Min Temperature 23°F / -5°C 27°F / -3°C 4°F / -15°C (2011)
Degree Days
Heating Degree Days 28 27  
Month to date heating degree days 649 757  
Since 1 July heating degree days 3918 4475  
Cooling Degree Days 0 0  
Month to date cooling degree days 0 0  
Year to date cooling degree days 0 0  
Moisture
Dew Point 21°F / -6°C   
Average Humidity 52    
Maximum Humidity 74    
Minimum Humidity 29    
Precipitation
Precipitation 0.00 in / 0.00 cm 0.03 in / 0.76 cm 0.46 in / 1.17 cm (2010)
Month to date precipitation T 0.73  
Year to date precipitation 0.10 1.87  
Snow
Snow 0.00 in / 0.00 cm 0.10 in / 0.25 cm 1.20 in / 3.05 cm (1976)
Month to date snowfall 0.0 2.5  
Year to date snowfall 1.1 7.8  
Since 1 July snowfall 15.3 20.8  
Snow Depth 0.00 in / 0.00 cm   
Wind
Wind Speed 3 mph / 5 km/h   
Max Wind Speed 12 mph / 19 km/h   
Max Gust Speed 21 mph / 34 km/h   
Visibility 10 miles / 16 kilometers   
Events     

Key: T is trace of precipitation, MM is missing value
Source: NWS Daily Summary
Time(PST)TemperatureDew PointHumidity Pressure Visibility Wind DirectionWind SpeedGust SpeedPrecipitationEvents Conditions
12:53 AM 30.0°F / -1.1°C 19.0°F / -7.2°C 64% 30.25 in / 1024.1 hPa 10.0 miles / 16.1 kilometers NE 3.5 mph / 5.6 km/h - N/A   Clear
1:53 AM 28.9°F / -1.7°C 19.0°F / -7.2°C 67% 30.27 in / 1024.9 hPa 10.0 miles / 16.1 kilometers Calm Calm - N/A   Clear
2:53 AM 24.1°F / -4.4°C 17.1°F / -8.3°C 75% 30.28 in / 1025.4 hPa 10.0 miles / 16.1 kilometers Calm Calm - N/A   Clear
3:53 AM 25.0°F / -3.9°C 18.0°F / -7.8°C 75% 30.30 in / 1026.0 hPa 10.0 miles / 16.1 kilometers WSW 3.5 mph / 5.6 km/h - N/A   Clear
4:53 AM 25.0°F / -3.9°C 18.0°F / -7.8°C 75% 30.30 in / 1026.1 hPa 10.0 miles / 16.1 kilometers WNW 4.6 mph / 7.4 km/h - N/A   Clear
5:53 AM 28.9°F / -1.7°C 19.9°F / -6.7°C 69% 30.31 in / 1026.3 hPa 10.0 miles / 16.1 kilometers Calm Calm - N/A   Scattered Clouds
6:53 AM 28.9°F / -1.7°C 19.9°F / -6.7°C 69% 30.33 in / 1027.0 hPa 10.0 miles / 16.1 kilometers East 4.6 mph / 7.4 km/h - N/A   Scattered Clouds
7:53 AM 33.1°F / 0.6°C 21.9°F / -5.6°C 64% 30.34 in / 1027.4 hPa 10.0 miles / 16.1 kilometers Calm Calm - N/A   Clear
8:53 AM 37.0°F / 2.8°C 23.0°F / -5.0°C 57% 30.35 in / 1027.5 hPa 10.0 miles / 16.1 kilometers Calm Calm - N/A   Clear
9:53 AM 44.1°F / 6.7°C 21.9°F / -5.6°C 42% 30.34 in / 1027.2 hPa 10.0 miles / 16.1 kilometers Calm Calm - N/A   Clear
10:53 AM 46.0°F / 7.8°C 23.0°F / -5.0°C 40% 30.33 in / 1026.9 hPa 10.0 miles / 16.1 kilometers Variable 3.5 mph / 5.6 km/h - N/A   Clear
11:53 AM 48.0°F / 8.9°C 21.9°F / -5.6°C 36% 30.32 in / 1026.5 hPa 10.0 miles / 16.1 kilometers East 6.9 mph / 11.1 km/h - N/A   Clear
12:53 PM 48.9°F / 9.4°C 21.9°F / -5.6°C 35% 30.30 in / 1025.8 hPa 10.0 miles / 16.1 kilometers South 6.9 mph / 11.1 km/h - N/A   Clear
1:53 PM 48.9°F / 9.4°C 21.0°F / -6.1°C 33% 30.27 in / 1025.1 hPa 10.0 miles / 16.1 kilometers SE 10.4 mph / 16.7 km/h - N/A   Clear
2:53 PM 50.0°F / 10.0°C 21.0°F / -6.1°C 32% 30.26 in / 1024.6 hPa 10.0 miles / 16.1 kilometers SSE 4.6 mph / 7.4 km/h - N/A   Clear
3:53 PM 50.0°F / 10.0°C 19.9°F / -6.7°C 31% 30.25 in / 1024.2 hPa 10.0 miles / 16.1 kilometers SE 10.4 mph / 16.7 km/h - N/A   Clear
4:53 PM 48.9°F / 9.4°C 23.0°F / -5.0°C 36% 30.24 in / 1023.8 hPa 10.0 miles / 16.1 kilometers SE 5.8 mph / 9.3 km/h - N/A   Clear
5:53 PM 45.0°F / 7.2°C 21.9°F / -5.6°C 40% 30.24 in / 1023.9 hPa 10.0 miles / 16.1 kilometers Calm Calm - N/A   Clear
6:53 PM 45.0°F / 7.2°C 24.1°F / -4.4°C 44% 30.23 in / 1023.7 hPa 10.0 miles / 16.1 kilometers Calm Calm - N/A   Clear
7:53 PM 43.0°F / 6.1°C 25.0°F / -3.9°C 49% 30.22 in / 1023.4 hPa 10.0 miles / 16.1 kilometers Calm Calm - N/A   Mostly Cloudy
8:53 PM 43.0°F / 6.1°C 24.1°F / -4.4°C 47% 30.23 in / 1023.6 hPa 10.0 miles / 16.1 kilometers NNE 3.5 mph / 5.6 km/h - N/A   Clear
9:53 PM 42.1°F / 5.6°C 23.0°F / -5.0°C 47% 30.22 in / 1023.1 hPa 10.0 miles / 16.1 kilometers Variable 3.5 mph / 5.6 km/h - N/A   Partly Cloudy
10:53 PM 37.0°F / 2.8°C 24.1°F / -4.4°C 59% 30.22 in / 1023.2 hPa 10.0 miles / 16.1 kilometers NW 6.9 mph / 11.1 km/h - N/A   Clear
11:53 PM 32.0°F / 0.0°C 21.9°F / -5.6°C 66% 30.22 in / 1023.2 hPa 10.0 miles / 16.1 kilometers Calm Calm - N/A   Clear
Moon Phase
Feb. 26 Mar. 04 Mar. 11 Mar. 19 Mar. 27
Sunrise:06:46 AM (PST) Moon Rise:07:14 PM (PST)2/26
Sunset:05:44 PM (PST) Moon Set:06:45 AM (PST)2/26

Copyright © 2014 The Weather Underground, Inc.